Date,TemperatureHighF,TemperatureAvgF,TemperatureLowF,DewpointHighF,DewpointAvgF,DewpointLowF,HumidityHigh,HumidityAvg,HumidityLow,PressureMaxIn,PressureMinIn,WindSpeedMaxMPH,WindSpeedAvgMPH,GustSpeedMaxMPH,PrecipitationSumIn
2013-4-1,50.7,40.2,30.6,26.1,21.6,17.2,71,49,30,24.22,24.17,27,14,27,0.00
2013-4-2,59.0,45.2,33.3,29.5,21.5,16.7,55,40,21,24.18,24.11,36,14,36,0.00
2013-4-3,51.4,43.8,40.1,34.3,30.3,27.0,74,59,44,24.25,24.11,42,18,44,0.00
2013-4-4,56.8,45.3,33.8,38.3,30.2,19.8,82,58,24,24.19,23.97,36,13,41,0.00
2013-4-5,50.7,43.4,38.1,40.3,29.7,18.5,91,60,29,24.02,23.90,50,30,52,0.02
2013-4-6,46.2,39.6,34.5,34.5,26.8,22.8,89,60,42,24.04,23.94,43,23,43,0.00
2013-4-7,38.3,31.2,18.9,34.5,26.1,17.8,99,83,61,23.99,23.80,46,20,47,0.07
2013-4-8,18.5,12.3,9.0,17.8,10.4,6.8,97,92,87,24.29,23.96,22,9,23,0.00
2013-4-9,27.7,16.7,8.6,23.2,12.2,6.4,94,83,64,24.35,24.25,18,1,21,0.00
2013-4-10,44.8,31.1,16.3,34.0,23.2,12.2,86,73,58,24.26,23.91,46,20,49,0.00
2013-4-11,43.2,35.5,26.8,31.6,24.7,16.9,99,67,39,24.10,23.91,40,23,48,0.00
2013-4-12,41.9,32.2,23.0,34.2,22.8,15.1,99,73,35,24.16,23.81,29,12,33,0.01
2013-4-13,40.5,32.4,23.4,31.8,17.3,0.7,99,57,26,23.82,23.63,46,26,51,0.01
2013-4-14,23.4,17.4,13.3,20.5,15.9,11.8,97,94,71,24.02,23.81,38,24,39,0.00
2013-4-15,23.4,15.8,10.4,20.7,14.0,8.6,95,92,86,24.18,24.00,25,10,27,0.00
2013-4-16,25.5,16.8,13.3,23.7,15.3,11.8,96,94,90,24.30,24.14,15,2,16,0.00
2013-4-17,32.9,17.7,11.7,30.9,14.8,6.3,96,89,53,24.31,24.27,0,0,0,0.01
2013-4-18,38.1,29.6,19.2,23.7,16.1,6.1,64,57,51,24.27,24.19,33,12,33,0.00
2013-4-19,39.6,34.6,28.9,30.4,26.5,20.5,83,72,62,24.19,23.96,37,26,47,0.00
2013-4-20,45.5,37.7,24.8,32.0,27.9,21.4,99,69,41,24.14,23.99,47,32,53,0.01
2013-4-21,24.6,18.2,14.0,24.4,16.5,12.6,99,93,85,24.29,24.12,34,8,35,0.00
2013-4-22,27.7,19.2,12.7,23.9,14.3,-0.9,94,82,38,24.41,24.28,1,0,1,0.00
2013-4-23,35.4,26.4,17.1,22.5,14.0,3.6,76,60,39,24.34,24.22,29,8,30,0.00
2013-4-24,45.3,34.7,23.5,28.4,21.0,13.3,99,63,30,24.29,24.05,47,21,49,0.01
2013-4-25,53.6,44.0,36.3,25.2,19.4,13.3,52,38,22,24.18,24.01,39,25,45,0.01
2013-4-26,60.1,49.9,41.2,28.2,24.2,19.2,51,37,21,24.28,24.18,40,22,43,0.00
2013-4-27,59.7,51.7,44.6,31.1,21.9,9.5,59,33,14,24.26,24.07,59,34,65,0.50
2013-4-28,52.7,45.3,40.5,32.4,26.6,18.3,69,49,27,24.15,23.96,49,29,59,0.30
2013-4-29,46.4,38.5,23.9,30.0,20.1,6.3,99,49,22,23.97,23.72,68,37,72,5.49
2013-4-30,26.1,22.4,19.0,25.9,21.6,17.8,99,97,93,24.31,23.93,37,15,40,0.02